Regional Weather Roundup
Issued by NWS Green Bay, WI

Home | Current Version | Previous Version | Text Only | Print | Product List | Glossary On
Versions: 1 2 3 4 5 6 7 8 9 10 11 12 13 14 15 16 17 18 19 20 21 22 23 24 25 26 27 28 29 30 31 32 33 34 35 36 37 38 39 40 41 42 43 44 45 46 47 48 49 50
000
ASUS43 KGRB 261710
RWRGRB

NORTH-CENTRAL AND NORTHEAST WISCONSIN REGIONAL WEATHER ROUNDUP
NATIONAL WEATHER SERVICE GREEN BAY WI
1200 PM CDT THU MAR 26 2015

WIZ005-009-010>012-018-019-261800-
NORTH CENTRAL WISCONSIN

CITY           SKY/WX    TMP DP  RH WIND       PRES   REMARKS
IRONWOOD       CLOUDY    19  14  79 NW16      30.03S WCI   5
MANITOWISH WTR LGT SNOW  21  12  68 N10G24    29.99R WCI  10
ARBOR VITAE    FLURRIES  23  13  64 N13       29.98S
EAGLE RIVER    CLOUDY    22  11  60 NW17      29.96R WCI   8
LAND O LAKES   LGT SNOW  22  13  70 NW14G20   29.97R WCI   9
RHINELANDER    CLOUDY    24  12  60 NW16G22   29.96S
PHILLIPS       CLOUDY    23  12  64 NW12G18   30.01S
ANTIGO         CLOUDY    26  16  66 N14G20    29.95S
TOMAHAWK       FLURRIES  24  14  64 N9G17     29.99S
MERRILL        CLOUDY    26  13  58 N10G18    29.99R
$$

WIZ013-073-261800-
NORTHEAST WISCONSIN

CITY           SKY/WX    TMP DP  RH WIND       PRES   REMARKS
IRON MOUNTAIN  CLOUDY    25  13  60 N22       29.94R
MARINETTE      CLOUDY    30  18  59 N14G21    29.94S
OCONTO         CLOUDY    32  19  58 N10G18    29.94S
$$

WIZ017-030-035>037-045-261800-
CENTRAL WISCONSIN

CITY           SKY/WX    TMP DP  RH WIND       PRES   REMARKS
MEDFORD        CLOUDY    25  15  65 NW13      30.00R
WAUSAU         CLOUDY    27  15  61 NW13G21   29.97S
MOSINEE        CLOUDY    27  19  74 N16       29.99R
MARSHFIELD     CLOUDY    30  17  58 NW18      30.00R
WISC RAPIDS    CLOUDY    30  18  60 NW15      30.01R
STEVENS POINT  CLOUDY    28  16  61 NW13      29.99R
WAUPACA        CLOUDY    35  18  50 NW15      29.98S
SHAWANO        CLOUDY    33  19  56 NW12G18   29.96S
CLINTONVILLE   CLOUDY    32  19  59 N13G18    29.97R
$$

WIZ038-039-048-051-261800-
FOX VALLEY

CITY           SKY/WX    TMP DP  RH WIND       PRES   REMARKS
NWS GREEN BAY  CLOUDY    33  21  61 NW17      29.95S
APPLETON       CLOUDY    32  19  59 NW15      29.96S
OSHKOSH        CLOUDY    33  21  61 NW16      29.96S
FOND DU LAC    CLOUDY    34  20  56 NW15      29.96S
$$

WIZ022-050-052-261800-
EAST CENTRAL WISCONSIN

CITY           SKY/WX    TMP DP  RH WIND       PRES   REMARKS
STURGEON BAY   CLOUDY    32  19  59 N16G24    29.95S
MANITOWOC      LGT RAIN  34  24  67 NW14      29.94S
SHEBOYGAN      CLOUDY    34  22  61 NW16G23   29.94S
$$

LMZ563-521-522-541>543-261800-
LAKESHORE

STATION/POSITION TIME  TEMP    WIND        PRES    VSBY  WAVE
                       AIR SEA DIR/SP/G                  HT/PER
                 (UTC) (F)     (DEG/KT/KT) (MB)    (MI)  (FT/S)
SHEBOYGAN LKSHOR 1700   35     300/ 13/ 15 1014.9R
KEWAUNEE LKSHORE 1700   33     330/ 11/ 16 1012.9S
NORTHPORT PIER   1700   27     330/ 20/ 22 1013.9R
SISTER BAY LKSHO 1700   31     360/ 20/ 24   N/A
CHAMBERS ISLAND  1700   30     310/ 17/ 21 1014.6R
MENOMINEE LKSHOR 1700   30     330/ 17     1014.6F
$$


USA.gov is the U.S. government's official web portal to all federal, state and local government web resources and services.